Starlink 35133

operational
NORAD ID: 65535 Int'l Des: 2025-200 Owner: SPXS Country: US Constellation: starlink
LEOCIRCULARRETROGRADE

Über Starlink 35133

Beschreibung wird geladen...

Live-Position

3D-Globus wird geladen...

Nächste Überflüge

Höhenverlauf

Altitude vs Time

uPlot chart will show altitude changes over time

Zweizeiliger Elementsatz

1 65535U 25200R 25304.15220702 .00050405 00000-0 12837-2 0 9993
2 65535 97.6024 11.8658 0001879 95.5324 264.6135 15.39399622 9629
Epoch: 31. Okt. 2025 • Age: 16 hours

Aktueller Status

Höhe 450.4 km
Geschwindigkeit 7.64 km/s
Subsatellitenpunkt 26.43°N, 142.77°W
Startdatum 6. Sept. 2025
Alter 0.1 years
Typ internet

Technische Details

Klassifizierung Payload
Masse 575.00 kg
Trockenmasse 530.00 kg
Gesamtmasse 575.00 kg
Länge 0.30 m
Durchmesser 4.10 m
Spannweite 29.00 m
Form Box + pan
Hersteller SPXS
Bus-Typ Starlink V2MO
Phasenstatus In Orbit
Besitzer/Staat SPXS/US

Große Konstellationen

Loading constellations...